Location: Fayetteville
(35.0530°N, 78.8790°W)
Time: 08:36:56
(UTC-04:00)

Hubble Space Telescope - Pass Details

Date: 18 June 2019
Orbit: 536 x 540 km, 28.5° (Epoch: 20 July)

Event Time Altitude Azimuth Distance (km) Brightness Sun altitude
Exits shadow 04:32:08 28° 208° (SSW) 1,014 1.6 -15.4°
Maximum altitude 04:32:55 30° 186° (S) 960 1.6 -15.3°
Drops below altitude 10° 04:36:33 10° 124° (SE) 1,776 3.6 -14.8°
Sets 04:38:59 0° 113° (ESE) 2,666 4.6 -14.4°
